Theta_e
312 312 313 307 293 292 287 290 296 294 295 300 301 300 299 301 299 295 305 307 309 309 312 313 327 331 333 338 346 351 353 355 355 354 353 354 355 355 354 353 353 353 355 355 352 350 349 349 348
308 311 308 300 287 283 286 292 292 296 298 299 300 299 298 298 304 305 304 307 308 308 310 314 324 324 328 330 334 340 349 352 354 354 355 354 354 354 354 353 353 353 354 355 352 350 350 349 349
308 310 299 292 288 284 285 291 293 297 297 297 298 301 299 300 302 301 304 306 306 306 308 316 322 320 322 325 327 332 337 348 351 352 354 354 354 354 354 353 352 353 354 355 353 352 350 348 349
304 303 298 288 285 290 290 293 296 296 296 296 297 295 298 303 302 302 304 304 303 302 305 313 322 317 318 320 322 325 330 335 346 350 352 354 354 353 353 352 351 351 354 354 353 352 350 348 348
303 299 289 286 286 290 294 296 296 294 295 294 296 293 296 302 304 302 300 301 300 300 302 304 319 318 315 317 319 320 322 327 333 341 350 352 352 352 352 352 351 351 352 353 352 352 350 348 347
294 296 285 283 287 292 295 297 296 295 296 296 293 293 294 303 300 298 297 296 298 298 301 304 311 317 317 318 317 316 318 320 325 330 343 349 350 351 351 351 351 350 351 351 351 351 349 347 346
291 289 286 286 287 289 293 297 294 292 292 293 295 291 294 298 300 298 295 294 296 297 299 300 302 306 312 315 317 317 318 320 321 325 333 343 345 347 346 348 349 349 351 351 349 349 347 346 346
292 290 285 285 284 285 292 294 293 291 290 295 295 289 288 296 298 295 293 294 294 296 297 297 298 300 300 302 312 316 317 320 321 323 328 332 336 339 339 339 344 347 349 349 348 346 345 345 344
292 284 281 284 285 287 292 289 292 293 290 290 292 291 293 295 296 293 291 292 293 295 295 296 297 297 299 300 301 310 314 316 320 320 321 327 337 341 339 337 338 344 344 346 346 345 343 340 338
286 283 284 289 289 287 287 288 286 285 285 285 287 290 292 292 291 289 290 289 291 291 293 295 295 296 298 299 299 302 304 307 312 318 319 322 338 339 340 333 331 337 338 341 344 343 338 334 337
287 282 286 287 288 288 284 284 286 283 281 284 284 287 289 289 289 289 289 290 290 292 293 294 295 296 296 296 298 299 300 303 307 313 318 321 324 338 338 340 335 338 330 339 341 339 338 338 336
282 285 285 286 287 285 283 284 282 283 283 287 287 288 288 287 288 288 289 290 290 291 293 294 295 295 295 297 297 298 299 300 302 306 315 319 318 333 336 338 338 336 337 337 339 337 337 337 336
281 283 285 285 285 284 285 282 282 282 286 287 288 288 287 288 288 289 290 290 291 291 292 293 294 294 295 295 297 298 298 299 301 304 310 317 322 322 334 337 338 337 338 336 337 336 336 336 335
283 283 282 284 283 283 282 282 283 283 286 285 286 286 287 287 287 288 289 289 290 292 292 294 295 296 296 295 295 296 298 299 300 302 305 312 319 323 322 335 336 337 336 336 336 336 335 335 336
283 278 281 282 282 281 283 279 279 283 285 284 284 285 286 287 288 287 289 289 290 291 293 294 295 296 295 295 295 296 297 299 299 301 304 309 315 318 323 327 334 336 336 336 335 335 335 334 334
278 278 273 280 282 283 282 274 281 283 283 282 283 284 285 286 288 289 289 289 289 291 292 294 296 296 297 295 295 296 297 297 298 299 302 308 313 316 320 320 330 334 336 335 334 335 334 333 332
277 271 274 277 284 282 280 275 281 283 283 281 282 283 284 285 287 288 289 288 289 290 290 291 293 294 295 296 297 296 296 297 297 298 300 303 308 315 319 325 328 332 333 334 333 334 332 331 330
273 273 274 273 278 279 277 276 280 282 282 281 282 283 283 284 286 288 289 289 288 288 289 290 291 292 294 295 295 296 296 296 298 298 300 303 305 309 310 316 325 330 327 329 333 331 331 329 326
276 274 272 275 279 277 275 276 278 281 281 280 281 282 283 283 285 287 288 287 287 287 287 288 289 289 290 290 291 293 293 295 296 297 299 300 301 302 308 314 322 327 326 325 330 330 326 323 309
276 273 272 276 279 277 275 274 277 279 280 280 281 280 281 282 283 285 285 285 286 285 286 287 287 288 289 290 291 293 293 294 295 297 298 299 302 303 306 309 318 324 323 323 324 325 320 307 313
275 273 273 272 275 276 274 271 274 278 280 281 281 281 282 281 281 282 283 283 283 283 284 285 286 286 287 288 289 290 292 293 293 294 295 297 300 301 303 309 316 323 324 321 319 317 314 305 311
271 276 275 273 271 266 273 263 271 275 277 279 280 279 279 280 281 282 282 282 282 283 283 284 285 286 287 287 287 287 287 288 292 293 294 296 298 298 298 305 315 321 323 321 320 319 314 308 307
272 276 273 273 269 268 268 264 268 275 275 277 278 279 279 280 281 281 281 282 282 282 282 283 284 285 286 286 286 286 286 288 291 293 293 295 297 298 298 300 314 319 320 320 318 315 315 314 312
278 274 273 272 269 262 267 268 267 270 275 276 277 278 279 279 280 281 281 281 281 281 281 282 282 283 284 285 285 285 286 287 289 291 292 293 295 297 299 301 313 319 319 316 315 314 312 311 311
270 264 262 256 259 260 271 266 268 274 276 277 275 276 278 279 279 279 278 278 278 279 279 280 281 280 282 282 283 284 285 286 287 289 291 292 293 295 299 303 314 316 316 314 313 312 309 309 307
272 267 262 257 257 261 269 258 268 277 277 278 278 276 278 278 278 277 277 277 276 277 278 278 278 278 279 280 281 283 284 285 286 288 290 292 294 294 296 300 312 315 312 311 311 311 309 309 307
267 261 271 266 262 257 264 269 275 277 276 276 275 277 276 276 275 275 275 275 275 275 275 276 276 276 277 278 280 281 283 284 285 287 290 293 294 297 296 297 309 314 310 309 309 309 307 307 305
272 275 263 266 257 253 260 263 265 269 269 273 274 274 273 274 273 273 273 273 274 274 274 275 275 274 275 277 278 280 281 284 286 287 288 292 294 294 295 299 309 311 308 308 307 306 304 304 302
269 265 270 269 261 259 258 260 265 267 266 267 270 274 271 271 271 272 272 272 272 272 273 273 273 272 273 275 277 278 279 281 284 287 289 292 294 294 294 295 307 305 300 305 306 304 303 301 300
268 265 268 261 257 260 260 262 265 265 268 269 272 274 272 271 272 271 270 270 270 270 271 271 272 271 272 274 275 277 278 280 283 286 289 293 293 294 295 299 307 305 304 304 304 301 301 300 298
Wind_Speed
17 8 5 3 4 5 18 17 14 16 18 19 5 2 6 13 6 3 6 7 8 8 10 14 21 23 24 24 23 11 13 16 16 16 17 17 18 19 20 18 18 17 19 18 18 17 16 15 13
9 14 3 4 6 10 21 12 21 18 10 7 4 3 7 13 8 12 7 6 7 8 10 13 19 22 22 23 22 23 13 15 17 18 17 18 19 20 21 19 18 19 18 17 19 18 16 16 15
11 9 3 5 10 21 18 4 14 17 6 13 7 7 7 7 10 6 6 7 8 8 8 10 16 20 21 21 21 21 21 13 18 19 19 19 19 20 21 21 19 19 18 18 18 17 17 15 15
4 4 4 9 23 27 22 17 16 16 7 4 9 9 3 9 6 7 8 8 8 9 8 7 12 16 19 19 19 21 20 19 14 19 20 21 21 21 20 21 21 20 18 19 18 17 18 16 15
5 4 10 14 27 28 19 23 22 24 21 7 6 6 7 8 14 10 8 8 8 8 7 7 9 10 16 17 17 19 18 18 18 17 22 22 22 22 21 22 22 21 19 19 19 18 18 17 16
5 4 10 17 25 21 22 22 21 20 19 17 9 8 10 15 14 8 9 9 8 8 6 6 7 9 10 12 14 16 17 18 19 19 16 23 24 24 23 23 23 23 20 20 20 19 19 18 17
8 10 17 22 24 25 22 19 22 12 11 12 11 7 3 8 9 9 9 8 8 8 8 6 6 6 9 11 11 13 12 14 15 17 17 21 24 25 26 24 25 24 23 21 21 20 20 19 18
6 10 21 20 21 33 20 17 6 7 6 12 4 5 3 10 16 7 7 8 9 7 7 7 7 7 5 5 10 10 11 10 14 12 14 14 15 20 20 21 23 26 24 23 21 21 21 21 19
9 7 14 22 22 25 18 9 11 9 8 5 6 10 12 17 15 14 7 7 8 8 7 7 7 7 6 6 8 7 8 10 10 7 9 12 9 14 16 19 20 25 25 22 22 22 21 19 17
8 11 16 18 19 16 17 12 11 15 16 19 15 14 11 10 10 13 15 11 11 9 8 7 7 7 7 7 7 6 7 5 6 5 6 6 9 11 14 15 17 22 22 24 22 24 21 17 9
7 20 20 23 22 19 16 17 15 15 20 17 19 17 13 12 13 13 15 12 9 9 7 8 7 7 7 6 4 3 3 4 4 7 4 5 9 7 8 8 9 13 17 13 15 14 11 14 10
19 20 22 20 19 16 19 17 18 17 22 17 17 17 15 12 13 16 12 14 8 9 12 9 8 7 7 5 4 4 3 4 4 5 7 2 2 8 7 8 9 10 9 14 13 9 13 14 15
20 21 20 20 20 17 18 20 20 23 19 21 18 18 18 18 19 14 11 10 8 10 9 8 8 7 6 6 5 4 4 4 5 5 6 4 4 5 9 9 10 9 10 12 12 12 12 13 14
13 22 22 19 21 23 23 23 21 24 17 14 19 20 19 18 8 8 10 10 10 11 8 7 7 7 6 6 6 5 4 5 5 5 5 7 5 4 7 9 11 10 10 11 12 13 13 13 13
17 22 18 18 23 27 24 24 25 14 17 14 17 15 14 11 11 10 11 14 11 10 7 6 7 7 7 7 7 6 5 7 4 5 7 7 6 5 6 8 8 10 10 14 13 13 13 12 11
21 21 20 18 23 21 16 18 15 11 15 16 17 17 17 18 15 14 10 9 7 6 7 8 8 9 8 6 6 7 7 6 6 5 6 7 7 7 6 5 9 9 10 11 13 13 12 13 12
14 20 26 24 18 22 18 23 19 13 15 15 17 16 16 16 16 12 10 6 7 7 7 8 8 9 9 9 7 7 9 8 8 8 5 7 8 8 5 4 8 9 8 11 13 13 14 13 12
23 24 21 24 22 22 23 26 25 20 17 19 19 16 16 17 16 11 8 6 4 4 6 7 8 8 8 6 7 7 6 6 8 7 6 7 4 7 7 9 9 13 11 10 14 17 14 11 10
21 25 26 24 22 24 21 23 25 19 16 19 20 20 19 10 6 9 7 4 4 5 7 8 8 9 7 5 7 7 7 7 8 8 10 9 8 9 11 10 9 7 11 19 12 15 20 10 12
19 23 25 22 18 19 22 25 20 22 21 15 14 8 9 10 8 7 7 6 6 7 8 10 11 11 9 7 6 7 7 8 8 6 8 10 9 10 11 10 9 7 7 15 13 12 11 5 13
20 23 20 22 21 17 18 22 17 21 20 21 5 5 6 5 7 8 8 8 8 8 8 11 12 12 12 12 9 9 10 9 10 10 9 10 8 8 9 9 11 8 10 9 9 6 12 7 7
20 17 20 20 15 10 8 19 23 19 20 9 9 2 4 7 7 9 11 11 8 10 9 11 13 13 13 12 11 14 12 13 10 9 10 10 11 11 12 14 13 11 9 11 12 13 11 11 8
13 12 19 20 18 15 22 7 7 14 7 6 4 6 7 8 10 12 12 13 11 11 11 10 13 14 14 13 14 12 14 13 11 10 15 11 10 11 11 14 14 12 10 10 13 13 13 14 13
13 8 16 16 12 7 17 9 4 7 7 5 7 8 9 12 12 12 12 13 13 12 12 12 14 15 14 15 16 17 18 17 13 13 11 11 8 7 10 14 14 14 13 13 12 16 16 14 12
3 4 8 6 4 7 13 12 7 15 5 6 4 7 9 12 13 14 15 15 15 15 15 14 15 16 15 16 17 17 19 19 19 17 12 15 10 10 8 11 13 12 14 14 13 15 14 16 15
11 3 4 8 5 11 17 6 6 10 10 6 4 5 11 13 13 14 15 15 15 16 16 17 17 17 16 17 19 17 19 14 14 16 14 13 12 9 10 14 13 15 14 13 14 13 11 14 12
3 3 4 8 8 3 5 7 9 11 7 7 9 11 12 14 14 16 16 17 16 16 16 17 18 19 18 19 17 19 18 20 19 20 18 14 18 9 15 16 15 17 16 16 15 12 13 14 12
5 7 5 2 5 7 7 12 6 7 6 11 14 10 12 13 14 15 16 17 15 16 16 17 17 19 19 19 17 17 19 20 20 19 20 20 18 18 14 11 14 15 17 18 17 11 13 14 10
7 4 3 4 1 4 10 8 4 3 4 6 6 10 10 11 11 13 14 14 15 15 15 16 16 17 18 18 17 19 20 21 20 19 19 20 18 18 17 16 16 16 15 16 16 15 16 17 15
2 3 2 1 7 3 6 16 1 6 5 2 6 10 10 9 13 12 13 14 15 16 16 16 15 16 17 17 18 19 20 20 19 20 21 21 20 15 16 16 15 17 19 19 17 17 17 18 18
Wind_Direction
316 276 282 284 251 233 254 237 247 251 254 266 251 300 269 300 237 170 95 37 31 39 38 31 20 22 23 17 6 261 213 192 191 197 193 181 176 169 166 168 165 170 171 171 161 166 163 153 153
303 296 244 273 236 241 250 234 246 252 280 300 111 323 288 276 312 124 108 30 32 46 27 37 17 18 21 22 16 8 275 221 201 194 192 188 182 176 171 173 172 173 178 172 169 169 162 159 156
266 263 269 207 231 237 258 276 284 296 26 335 187 183 232 245 66 78 54 22 24 38 47 42 22 9 14 19 17 13 4 286 224 202 195 192 188 184 178 175 177 179 182 177 175 172 162 164 159
287 212 262 251 246 248 249 260 264 277 272 279 357 286 226 40 96 82 47 12 21 15 23 36 22 6 4 8 12 11 5 358 294 222 207 196 193 189 185 180 180 183 185 179 177 179 166 167 162
223 261 237 245 251 259 263 277 284 285 287 228 153 258 275 79 96 70 34 15 9 4 5 358 16 4 359 357 1 2 1 350 339 325 219 207 199 193 190 185 183 186 186 180 178 176 168 166 163
262 226 240 242 251 261 257 258 263 265 257 265 217 250 246 132 67 43 18 2 1 342 348 344 354 349 345 347 351 350 346 349 342 335 291 219 208 198 193 190 187 187 187 181 180 174 168 168 163
245 268 254 261 270 278 276 299 299 314 318 335 359 267 295 103 52 26 7 354 339 335 334 343 345 347 357 338 339 331 333 337 336 327 321 252 220 208 201 191 193 188 187 182 182 174 168 169 167
269 266 264 262 271 270 287 283 304 358 317 348 24 280 267 351 340 351 4 343 335 328 333 340 334 339 328 331 309 306 325 327 319 330 324 288 241 221 209 195 194 191 191 184 179 174 169 170 168
286 256 252 257 259 276 288 344 340 354 287 285 288 297 311 312 315 326 358 335 323 323 331 327 330 322 331 322 318 328 320 315 297 321 340 284 245 230 218 203 196 196 192 187 179 173 171 167 165
205 236 251 263 281 301 331 331 334 324 307 293 289 292 304 312 339 329 320 318 314 312 314 314 313 315 328 323 316 319 304 297 284 295 315 335 246 236 221 210 199 196 193 188 181 175 166 154 165
231 247 273 286 298 309 311 305 295 284 281 277 286 303 309 319 308 299 294 291 291 300 302 304 309 312 308 299 283 287 279 293 294 283 289 320 322 226 223 224 208 208 198 194 185 175 170 170 165
267 262 274 285 284 303 290 294 285 286 274 285 289 288 291 279 271 269 265 270 261 277 273 269 276 282 283 283 285 282 279 290 292 282 269 262 291 291 223 217 201 208 198 198 188 175 176 174 168
273 274 281 281 279 274 277 272 274 269 268 269 265 264 264 260 255 250 243 254 251 254 261 261 254 256 269 274 281 288 279 268 280 293 290 240 231 271 274 230 211 194 191 198 189 177 175 174 167
292 293 289 289 287 279 278 276 271 268 273 291 286 276 262 261 271 291 290 271 261 263 257 260 265 262 263 268 275 272 274 269 265 272 265 260 236 227 283 256 225 206 197 196 188 180 178 177 169
276 289 286 276 277 276 269 267 257 269 276 287 304 297 299 299 295 278 270 266 264 261 269 273 271 260 258 258 262 263 260 271 253 259 265 273 251 228 224 278 236 228 200 192 190 185 176 176 171
288 277 276 270 255 256 260 270 265 257 273 277 282 282 280 280 276 271 267 266 271 1 1 340 331 323 304 274 267 273 276 277 281 277 283 272 249 249 248 243 250 225 231 193 191 178 176 180 176
251 272 278 291 303 309 305 297 310 297 284 289 287 282 285 282 275 268 258 50 21 3 343 326 312 302 301 300 281 255 258 265 270 272 270 268 275 260 270 250 277 250 237 209 190 179 186 180 171
300 302 306 303 313 310 304 293 290 290 289 279 276 273 268 268 271 268 79 53 5 338 310 294 288 280 289 284 281 276 258 257 261 260 245 246 266 284 263 262 241 231 215 264 192 181 179 173 148
300 301 293 286 289 290 282 283 283 285 288 285 277 271 262 267 312 61 53 16 320 293 282 277 285 288 287 281 280 273 276 249 252 253 251 248 247 245 262 257 251 220 201 213 237 191 173 162 135
298 293 298 298 302 303 297 288 292 281 273 280 300 322 43 32 11 13 5 347 314 300 298 297 292 291 287 281 276 274 265 261 265 265 262 242 238 234 238 245 258 236 230 199 179 221 147 91 171
296 302 310 304 303 294 295 292 299 293 297 280 74 33 56 37 14 353 332 318 321 312 307 302 298 294 290 288 288 285 282 270 266 264 255 255 256 245 254 252 229 211 205 189 158 152 131 142 172
307 313 303 301 308 291 320 290 290 289 281 254 120 86 32 17 357 340 325 313 309 305 301 295 290 285 281 279 274 264 263 267 260 252 247 248 237 241 252 258 236 201 203 199 194 165 147 130 179
299 315 311 297 284 291 282 258 266 264 30 43 81 49 16 357 348 325 314 315 317 311 299 295 293 287 285 278 271 269 265 268 264 253 262 257 237 231 232 251 240 190 197 197 182 165 167 179 173
311 310 296 279 265 248 261 295 266 328 28 39 48 13 357 340 318 316 322 321 313 310 303 299 294 290 288 283 280 276 265 267 262 255 264 248 247 235 238 241 242 197 191 182 183 169 168 170 167
53 323 307 318 334 265 322 326 266 288 79 81 32 1 333 317 327 324 324 321 314 308 304 299 296 294 290 284 277 273 271 270 263 265 248 262 238 231 238 241 230 200 187 181 172 172 169 174 165
302 275 288 295 291 303 308 263 274 55 81 95 12 323 319 330 325 324 318 313 311 309 308 303 299 292 284 278 275 272 266 261 261 255 252 247 253 225 227 249 237 198 177 176 172 169 169 177 169
292 233 286 292 251 267 241 278 319 72 59 17 328 338 333 326 329 321 320 318 313 308 303 299 294 290 284 279 271 263 261 258 256 252 252 247 248 234 220 230 239 198 171 172 171 173 166 165 168
220 319 324 278 298 305 292 299 301 354 345 343 341 332 329 324 324 322 317 311 308 305 303 300 294 289 285 278 271 267 260 255 253 251 244 245 238 240 242 243 226 189 176 174 167 171 163 158 153
282 269 253 269 253 299 324 296 230 236 243 304 327 327 318 316 308 302 299 304 305 303 301 297 294 288 285 281 274 267 259 254 252 252 245 246 239 222 228 232 229 187 166 172 171 165 160 161 151
254 275 272 258 310 283 263 294 245 185 244 354 331 311 307 306 300 302 307 310 311 312 308 304 297 291 281 276 272 262 257 251 246 242 237 247 225 229 218 227 201 183 175 170 168 161 163 159 161